{"data":{"norad_id":60944,"epoch":"2026-09-20T19:10:22.812096Z","epoch_age_seconds":162362,"freshness":"FRESH","line1":"1 60944U 24155W   26263.79887514  .00001141  00000+0  44907-4 0  9992","line2":"2 60944  53.1602 300.5198 0001250 100.3828 259.7316 15.34391220116302","mean_motion":15.3439122,"eccentricity":0.000125,"inclination_deg":53.1602,"raan_deg":300.5198,"arg_perigee_deg":100.3828,"mean_anomaly_deg":259.7316,"bstar":4.4907e-5,"rev_number":11630,"period_min":93.848295091261,"perigee_km":461.8742280498,"apogee_km":463.58444463389,"semimajor_km":6840.8663363418,"source":"CELESTRAK","updated_at":"2026-09-22T09:00:49.293746Z"}}